29,2014-05-04 18:05:09,1399226709,59.76652,-5.70351,5,1,2014-05-04 18:05:14,1399226714,9.921,9,11.1,0,0,59.7743,-5.6835,3,5
30,2014-05-04 19:05:08,1399230308,59.73102,-4.55691,93,1,2014-05-04 19:05:13,1399230313,9.964,9,11.1,0,0,59.7703,-5.6735,3,5
31,2014-05-04 20:05:08,1399233908,59.7435,-8.64337,186,1,2014-05-04 20:05:34,1399233934,9.964,9,11.1,0,0,59.7671,-5.6622,3,5
32,2014-05-04 21:05:11,1399237511,59.76958,-5.63268,2,0,2014-05-04 21:05:09,1399237509,9.964,23,11.1,0,0,59.7646,-5.6481,3,5
33,2014-05-04 22:05:27,1399241127,59.65939,-8.6922,186,1,2014-05-04 22:05:10,1399241110,9.878,23,11.1,0,0,59.7629,-5.6317,18,5
34,2014-05-04 23:06:12,1399244772,59.72063,-5.6257,4,1,2014-05-04 23:05:10,1399244710,9.878,23,11.1,0,0,59.7626,-5.6135,60,2
35,2014-05-05 00:05:34,1399248334,59.76958,-5.63268,3,0,2014-05-05 00:05:31,1399248331,9.878,23,11.1,0,0,59.7629,-5.5957,27,5
36,2014-05-05 01:05:44,1399251944,59.72365,-5.55494,4,1,2014-05-05 01:05:10,1399251910,9.835,25,11.1,0,0,59.7656,-5.5811,21,3
37,2014-05-05 02:05:10,1399255510,59.79812,-4.92344,77,0,2014-05-05 02:05:09,1399255509,9.835,25,11.1,0,0,59.7708,-5.5677,3,5
38,2014-05-05 03:05:11,1399259111,59.76958,-5.63268,3,0,2014-05-05 03:05:31,1399259131,9.835,25,11.1,0,0,59.7756,-5.5591,3,5
39,2014-05-05 04:05:22,1399262722,59.81583,-4.42605,95,0,2014-05-05 04:05:07,1399262707,9.835,25,11.1,0,0,59.78,-5.5543,3,4
40,2014-05-05 05:05:24,1399266324,59.80349,-5.56874,5,0,2014-05-05 05:05:13,1399266313,9.835,27,11.1,0,0,59.7839,-5.5523,16,5
41,2014-05-05 06:05:12,1399269912,59.80648,-5.49778,15,1,2014-05-05 06:05:10,1399269910,9.835,27,11.1,0,0,59.7866,-5.5527,3,5
42,2014-05-05 07:05:10,1399273510,59.77559,-5.49096,2,1,2014-05-05 07:05:09,1399273509,9.835,27,11.1,0,0,59.7889,-5.5524,3,2
43,2014-05-05 08:05:11,1399277111,59.76958,-5.63268,2,1,2014-05-05 08:05:44,1399277144,9.835,27,11.1,0,0,59.7902,-5.5477,3,5
44,2014-05-05 09:05:52,1399280752,59.82154,-5.56874,6,0,2014-05-05 09:05:44,1399280744,9.835,32,11.1,0,0,59.7913,-5.5404,44,5
45,2014-05-05 10:05:13,1399284313,59.82454,-5.49778,8,0,2014-05-05 10:05:05,1399284305,9.835,32,11.1,0,0,59.7922,-5.5295,3,3
46,2014-05-05 11:05:13,1399287913,59.77559,-5.49096,4,-1,2014-05-05 11:05:11,1399287911,9.878,32,11.1,0,0,59.7931,-5.5184,3,5
47,2014-05-05 12:05:12,1399291512,59.77559,-5.49096,4,2,2014-05-05 12:05:03,1399291503,9.921,32,11.1,0,0,59.7952,-5.5065,3,5
48,2014-05-05 13:05:09,1399295109,59.82749,-5.42681,5,2,2014-05-05 13:05:39,1399295139,9.878,27,11.1,0,0,59.7986,-5.4959,3,5
49,2014-05-05 14:05:09,1399298709,59.77559,-5.49096,4,2,2014-05-05 14:05:43,1399298743,9.878,27,11.1,0,0,59.8008,-5.4873,3,5
50,2014-05-05 15:05:29,1399302329,59.96963,-8.41384,175,3,2014-05-05 15:05:12,1399302312,9.878,27,11.1,0,0,59.8037,-5.4822,22,3
51,2014-05-05 16:05:12,1399305912,59.80944,-5.42681,2,2,2014-05-05 16:05:14,1399305914,9.835,27,11.1,0,0,59.8067,-5.4795,3,5
52,2014-05-05 17:05:30,1399309530,59.94321,-7.82642,146,2,2014-05-05 17:05:47,1399309547,9.835,29,11.1,0,0,59.8089,-5.4801,21,5
53,2014-05-05 18:05:11,1399313111,59.80648,-5.49778,1,2,2014-05-05 18:05:23,1399313123,9.835,29,11.1,0,0,59.8133,-5.4825,3,4
54,2014-05-05 19:05:12,1399316712,59.92194,-7.0984,130,2,2014-05-05 19:05:02,1399316702,9.835,29,11.1,0,0,59.8146,-5.4779,3,4
55,2014-05-05 20:05:17,1399320317,59.69778,-11.24018,329,2,2014-05-05 20:05:10,1399320310,9.878,29,11.1,0,0,59.815,-5.4746,3,2
56,2014-05-05 21:05:09,1399323909,59.77559,-5.49096,5,1,2014-05-05 21:05:13,1399323913,9.835,27,11.1,0,0,59.8153,-5.4682,3,2
57,2014-05-05 22:05:42,1399327542,59.77559,-5.49096,9,2,2014-05-05 22:05:53,1399327553,9.878,27,11.1,0,0,59.8164,-5.4571,35,4
58,2014-05-05 23:05:09,1399331109,59.82749,-5.42681,3,1,2014-05-05 23:05:08,1399331108,9.835,27,11.1,0,0,59.8187,-5.4418,3,5
59,2014-05-06 00:05:11,1399334711,59.78408,-7.78762,148,1,2014-05-06 00:05:04,1399334704,9.835,27,11.1,0,0,59.8214,-5.4242,3,5
60,2014-05-06 01:05:13,1399338313,59.81236,-5.35583,2,1,2014-05-06 01:05:31,1399338331,9.835,29,11.1,0,0,59.8245,-5.4035,3,5
61,2014-05-06 02:05:28,1399341928,59.74072,-7.13384,118,0,2014-05-06 02:05:38,1399341938,9.835,29,11.1,0,0,59.8282,-5.3828,21,5
62,2014-05-06 03:05:12,1399345512,59.82749,-5.42681,2,1,2014-05-06 03:05:15,1399345515,9.835,29,11.1,0,0,59.8318,-5.3655,3,4
63,2014-05-06 04:05:24,1399349124,59.83328,-5.28482,3,0,2014-05-06 04:05:10,1399349110,9.835,29,11,0,0,59.8348,-5.3513,3,3
64,2014-05-06 05:05:10,1399352710,59.83328,-5.28482,1,7,2014-05-06 05:05:12,1399352712,9.835,30,11,0,0,59.8376,-5.3395,3,5
65,2014-05-06 06:05:18,1399356318,59.89437,-4.07544,99,1,2014-05-06 06:05:58,1399356358,9.835,30,11.1,0,0,59.8388,-5.3282,3,5
66,2014-05-06 07:06:04,1399359964,59.83328,-5.28482,4,1,2014-05-06 07:05:12,1399359912,9.835,30,11.1,0,0,59.8388,-5.319,56,4
67,2014-05-06 08:05:11,1399363511,59.8642,-5.2914,9,186,2014-05-06 08:05:15,1399363515,9.835,30,11,0,0,59.8383,-5.309,3,3
68,2014-05-06 09:05:20,1399367120,59.86132,-5.36249,3,187,2014-05-06 09:05:15,1399367115,9.878,27,11.1,0,0,59.838,-5.2972,3,5
69,2014-05-06 10:05:12,1399370712,59.81524,-5.28482,6,188,2014-05-06 10:05:11,1399370711,9.878,27,11.1,0,0,59.8385,-5.2832,3,5
70,2014-05-06 11:05:09,1399374309,59.83612,-5.2138,2,189,2014-05-06 11:05:13,1399374313,10.007,27,11.1,0,0,59.8404,-5.2658,3,5
71,2014-05-06 12:05:28,1399377928,59.8642,-5.2914,2,191,2014-05-06 12:05:32,1399377932,10.05,27,11.1,0,0,59.8431,-5.2437,22,5
72,2014-05-06 13:05:10,1399381510,59.83328,-5.28482,2,2,2014-05-06 13:05:33,1399381533,10.136,25,11,0,0,59.8467,-5.2206,3,1
73,2014-05-06 14:05:10,1399385110,59.83893,-5.14276,2,0,2014-05-06 14:05:02,1399385102,10.179,25,11.1,0,0,59.851,-5.1973,3,5
74,2014-05-06 15:05:12,1399388712,60.17204,-10.07902,285,2,2014-05-06 15:05:10,1399388710,10.265,25,11,0,0,59.8554,-5.1767,3,5
75,2014-05-06 16:05:10,1399392310,59.83612,-5.2138,2,1,2014-05-06 16:05:14,1399392314,10.308,25,11,0,0,59.8594,-5.1573,3,5
76,2014-05-06 17:05:54,1399395954,59.86985,-5.14917,3,2,2014-05-06 17:05:07,1399395907,10.351,27,11,0,0,59.863,-5.1428,47,3
77,2014-05-06 18:05:10,1399399510,59.84169,-5.07171,2,1,2014-05-06 18:05:35,1399399535,10.351,27,11,0,0,59.8656,-5.1302,3,5
78,2014-05-06 19:05:10,1399403110,59.94066,-6.74329,114,2,2014-05-06 19:05:11,1399403111,10.351,27,11,0,0,59.8676,-5.1196,3,5
79,2014-05-06 20:05:20,1399406720,59.86985,-5.14917,3,1,2014-05-06 20:05:03,1399406703,10.308,27,11,0,0,59.8687,-5.1086,3,5
80,2014-05-06 21:05:20,1399410320,59.84169,-5.07171,3,2,2014-05-06 21:05:08,1399410308,10.265,27,11.1,0,0,59.8694,-5.0962,3,5
81,2014-05-06 22:05:11,1399413911,59.83893,-5.14276,2,2,2014-05-06 22:05:44,1399413944,10.265,27,11.1,0,0,59.87,-5.0826,3,5
82,2014-05-06 23:05:10,1399417510,59.84441,-5.00064,2,2,2014-05-06 23:05:03,1399417503,10.222,27,11,0,0,59.8703,-5.0665,3,5
83,2014-05-07 00:05:12,1399421112,59.8471,-4.92956,3,1,2014-05-07 00:05:44,1399421144,10.179,27,11.1,0,0,59.8705,-5.0472,3,4
84,2014-05-07 01:05:11,1399424711,59.84169,-5.07171,1,8,2014-05-07 01:05:44,1399424744,10.136,25,11.1,0,0,59.8701,-5.0272,3,5
85,2014-05-07 02:05:23,1399428323,59.84169,-5.07171,2,2,2014-05-07 02:05:03,1399428303,10.093,25,11,0,0,59.8694,-5.0098,17,5
86,2014-05-07 03:05:11,1399431911,59.87804,-4.9357,2,2,2014-05-07 03:05:23,1399431923,10.05,25,11,0,0,59.8684,-4.9941,3,5
87,2014-05-07 04:05:23,1399435523,59.80842,-6.78897,120,2,2014-05-07 04:05:10,1399435510,10.007,25,11,0,0,59.8674,-4.9841,3,5
88,2014-05-07 05:05:11,1399439111,59.87535,-5.00687,2,6,2014-05-07 05:05:00,1399439100,10.007,25,11,0,0,59.8665,-4.9791,3,2
89,2014-05-07 06:05:11,1399442711,59.79428,-5.78149,104,1,2014-05-07 06:05:45,1399442745,9.964,25,11.1,0,0,59.8659,-4.979,3,5
90,2014-05-07 07:05:30,1399446330,59.89605,-4.9357,4,1,2014-05-07 07:05:42,1399446342,9.964,25,11,0,0,59.8656,-4.9822,22,5
91,2014-05-07 08:05:10,1399449910,59.8471,-4.92956,13,2,2014-05-07 08:05:15,1399449915,10.007,25,11,0,0,59.8657,-4.987,3,5
92,2014-05-07 09:05:15,1399453515,59.87804,-4.9357,2,5,2014-05-07 09:05:10,1399453510,10.007,26,11.1,0,0,59.8659,-4.9913,3,5
93,2014-05-07 10:05:11,1399457111,59.84441,-5.00064,4,2,2014-05-07 10:05:04,1399457104,10.007,26,11,0,0,59.867,-4.995,3,5
94,2014-05-07 11:05:10,1399460710,59.87535,-5.00687,2,2,2014-05-07 11:05:24,1399460724,10.007,26,11.1,0,0,59.8689,-4.9957,3,4
95,2014-05-07 12:05:47,1399464347,59.8471,-4.92956,2,1,2014-05-07 12:05:15,1399464315,10.007,26,11,0,0,59.871,-4.9919,31,3
96,2014-05-07 13:05:26,1399467926,59.89336,-5.00687,5,2,2014-05-07 13:05:12,1399467912,10.007,27,11,0,0,59.8738,-4.986,18,4
97,2014-05-07 14:05:08,1399471508,59.84441,-5.00064,3,2,2014-05-07 14:05:44,1399471544,10.007,27,11,0,0,59.8773,-4.9778,3,5
98,2014-05-07 15:05:10,1399475110,59.87535,-5.00687,3,3,2014-05-07 15:05:14,1399475114,10.05,27,11,0,0,59.8813,-4.9688,3,3
99,2014-05-07 16:05:11,1399478711,59.8471,-4.92956,3,2,2014-05-07 16:05:15,1399478715,10.05,27,11.1,0,0,59.8855,-4.9613,3,5
100,2014-05-07 17:05:09,1399482309,60.19642,-9.56908,268,2,2014-05-07 17:05:04,1399482304,10.007,25,11,0,0,59.8903,-4.9563,3,5
101,2014-05-07 18:05:13,1399485913,59.87804,-4.9357,6,2,2014-05-07 18:05:08,1399485908,10.007,25,11,0,0,59.8956,-4.9532,3,5
102,2014-05-07 19:05:13,1399489513,59.89871,-4.86451,4,2,2014-05-07 19:05:10,1399489510,10.007,25,11,0,0,59.9006,-4.9516,3,5
103,2014-05-07 20:05:32,1399493132,59.927,-4.94186,9,2,2014-05-07 20:05:45,1399493145,10.007,25,11,0,0,59.9052,-4.9496,18,2
104,2014-05-07 21:05:10,1399496710,59.89605,-4.9357,2,2,2014-05-07 21:05:10,1399496710,10.007,27,11,0,0,59.9099,-4.947,3,5
105,2014-05-07 22:05:08,1399500308,59.89871,-4.86451,2,2,2014-05-07 22:05:11,1399500311,10.007,27,11,0,0,59.9145,-4.9427,3,5
106,2014-05-07 23:05:45,1399503945,59.87804,-4.9357,5,2,2014-05-07 23:05:45,1399503945,10.007,27,11.1,0,0,59.9191,-4.9349,37,5
107,2014-05-08 00:05:09,1399507509,59.927,-4.94186,2,2,2014-05-08 00:05:10,1399507510,10.007,27,11,0,0,59.924,-4.9237,3,4
108,2014-05-08 01:05:56,1399511156,59.89605,-4.9357,5,2,2014-05-08 01:05:10,1399511110,9.964,26,11,0,0,59.9286,-4.9084,51,4
109,2014-05-08 02:05:08,1399514708,59.93228,-4.79929,4,2,2014-05-08 02:05:46,1399514746,9.964,26,11.1,0,0,59.9331,-4.8895,3,5
110,2014-05-08 03:05:10,1399518310,59.927,-4.94186,3,2,2014-05-08 03:05:45,1399518345,9.964,26,11,0,0,59.937,-4.8693,3,5
111,2014-05-08 04:05:12,1399521912,59.77883,-8.58362,220,1,2014-05-08 04:05:02,1399521902,9.921,26,11,0,0,59.9405,-4.8498,3,5
112,2014-05-08 05:05:18,1399525518,59.98122,-4.80529,5,2,2014-05-08 05:05:33,1399525533,9.921,26,11,0,0,59.9438,-4.8328,3,5
113,2014-05-08 06:05:13,1399529113,59.93228,-5.58957,123,1,2014-05-08 06:05:44,1399529144,9.964,26,11,0,0,59.9461,-4.8189,3,5
114,2014-05-08 07:05:26,1399532726,59.93486,-4.72799,2,2,2014-05-08 07:05:09,1399532709,9.964,26,11.1,0,0,59.9479,-4.8105,19,5
115,2014-05-08 08:05:12,1399536312,59.85615,-2.35623,150,2,2014-05-08 08:05:32,1399536332,10.05,26,11,0,0,59.9501,-4.8058,3,5
116,2014-05-08 09:05:10,1399539910,59.98122,-4.80529,7,2,2014-05-08 09:05:33,1399539933,10.007,25,11,0,0,59.9521,-4.8034,3,5
117,2014-05-08 10:05:11,1399543511,60.0148,-4.73981,24,2,2014-05-08 10:05:20,1399543520,10.007,25,11,0,0,59.9545,-4.8024,3,2
118,2014-05-08 11:05:16,1399547116,59.93486,-4.72799,2,2,2014-05-08 11:05:47,1399547147,10.05,25,11.1,0,0,59.9573,-4.7993,3,5
119,2014-05-08 12:05:15,1399550715,59.93228,-4.79929,6,1,2014-05-08 12:05:57,1399550757,10.093,25,11,0,0,59.9604,-4.7928,3,4
120,2014-05-08 13:05:26,1399554326,59.93486,-4.72799,3,2,2014-05-08 13:05:11,1399554311,10.179,26,11,0,0,59.9636,-4.7823,18,5
121,2014-05-08 14:05:09,1399557909,59.93486,-4.72799,3,1,2014-05-08 14:05:14,1399557914,10.222,26,11,0,0,59.9671,-4.7678,3,3
122,2014-05-08 15:05:29,1399561529,59.93228,-4.79929,10,2,2014-05-08 15:05:07,1399561507,10.351,26,11,0,0,59.9706,-4.7509,21,3
123,2014-05-08 16:05:11,1399565111,59.98635,-4.66249,2,2,2014-05-08 16:05:10,1399565110,10.523,26,11,0,0,59.9738,-4.7328,3,5
124,2014-05-08 17:05:09,1399568709,59.95538,-4.65667,2,2,2014-05-08 17:05:10,1399568710,10.437,25,11,0,0,59.9772,-4.7156,3,5
125,2014-05-08 18:05:13,1399572313,59.93486,-4.72799,2,2,2014-05-08 18:05:12,1399572312,10.351,25,11,0,0,59.9805,-4.7005,3,5
126,2014-05-08 19:05:41,1399575941,59.98635,-4.66249,10,2,2014-05-08 19:05:14,1399575914,10.437,25,11,0,0,59.9847,-4.6899,22,4
127,2014-05-08 20:05:08,1399579508,59.98886,-4.59106,1,2,2014-05-08 20:05:51,1399579551,10.351,25,11,0,0,59.9869,-4.6807,3,5
128,2014-05-08 21:05:11,1399583111,60.41512,1.23588,339,3,2014-05-08 21:05:12,1399583112,10.222,26,11,0,0,59.9899,-4.6748,3,5
129,2014-05-08 22:05:12,1399586712,59.98635,-4.66249,7,2,2014-05-08 22:05:10,1399586710,10.179,26,11,0,0,59.9934,-4.669,3,5
130,2014-05-08 23:05:30,1399590330,59.98635,-4.66249,7,3,2014-05-08 23:05:15,1399590315,10.136,26,11,0,0,59.996,-4.6621,21,2
131,2014-05-09 00:05:20,1399593920,60.01986,-4.59681,4,1,2014-05-09 00:05:14,1399593914,10.093,26,11,0,0,59.9983,-4.6518,3,5
132,2014-05-09 01:05:50,1399597550,59.98886,-4.59106,2,2,2014-05-09 01:05:14,1399597514,10.05,26,11,0,0,60.0003,-4.6377,46,5
133,2014-05-09 02:05:13,1399601113,59.98886,-4.59106,3,1,2014-05-09 02:05:14,1399601114,10.007,26,11,0,0,60.0017,-4.6204,3,5
134,2014-05-09 03:05:12,1399604712,59.98635,-4.66249,2,2,2014-05-09 03:05:03,1399604703,10.007,26,11,0,0,60.0024,-4.6002,3,5
135,2014-05-09 04:05:30,1399608330,59.97866,-8.27202,224,2,2014-05-09 04:05:11,1399608311,10.007,26,11,0,0,60.0023,-4.5806,23,3
136,2014-05-09 05:05:11,1399611911,59.99133,-4.51963,2,2,2014-05-09 05:05:10,1399611910,10.007,31,11,0,0,60.0012,-4.5623,3,3
137,2014-05-09 06:05:11,1399615511,59.89465,-8.3222,222,1,2014-05-09 06:05:32,1399615532,10.007,31,11,0,0,59.9994,-4.5471,3,5
138,2014-05-09 07:05:10,1399619110,59.99133,-4.51963,5,2,2014-05-09 07:05:09,1399619109,10.007,31,11,0,0,59.9972,-4.539,3,5
139,2014-05-09 08:05:13,1399622713,60.01735,-4.66832,80,2,2014-05-09 08:05:11,1399622711,10.007,31,11,0,0,59.9953,-4.5375,3,5
140,2014-05-09 09:05:19,1399626319,60.01986,-4.59681,3,2,2014-05-09 09:05:02,1399626302,10.007,27,11,0,0,59.9936,-4.5419,3,1
141,2014-05-09 10:05:23,1399629923,59.8196,-1.49805,188,1,2014-05-09 10:05:12,1399629912,10.05,27,11,0,0,59.9924,-4.55,3,5
142,2014-05-09 11:05:10,1399633510,59.99133,-4.51963,2,1,2014-05-09 11:05:15,1399633515,10.136,27,11,0,0,59.992,-4.5593,3,5
143,2014-05-09 12:05:12,1399637112,59.90333,-1.14433,202,2,2014-05-09 12:05:12,1399637112,10.136,27,11,0,0,59.9925,-4.5676,3,5
144,2014-05-09 13:05:12,1399640712,59.98886,-4.59106,2,1,2014-05-09 13:05:09,1399640709,10.179,28,11,0,0,59.994,-4.5729,3,4
145,2014-05-09 14:06:01,1399644361,59.98635,-4.66249,3,2,2014-05-09 14:05:58,1399644358,10.179,28,11,0,0,59.9965,-4.5733,55,5
146,2014-05-09 15:05:13,1399647913,59.99133,-4.51963,2,2,2014-05-09 15:05:33,1399647933,10.179,28,11,0,0,59.9998,-4.5682,3,5
147,2014-05-09 16:05:12,1399651512,59.98635,-4.66249,2,1,2014-05-09 16:05:09,1399651509,10.265,28,11,0,0,60.0035,-4.5589,3,5
148,2014-05-09 17:05:11,1399655111,59.98886,-4.59106,2,2,2014-05-09 17:05:44,1399655144,10.265,26,11,0,0,60.0077,-4.5472,3,2
149,2014-05-09 18:05:44,1399658744,59.99133,-4.51963,3,2,2014-05-09 18:05:09,1399658709,10.265,26,11,0,0,60.012,-4.5354,35,4
150,2014-05-09 19:05:10,1399662310,59.99133,-4.51963,5,7,2014-05-09 19:05:43,1399662343,10.222,26,11,0,0,60.0162,-4.5259,3,5
151,2014-05-09 20:05:12,1399665912,60.02233,-4.52528,3,2,2014-05-09 20:05:09,1399665909,10.222,26,11,0,0,60.0204,-4.5202,3,4
152,2014-05-09 21:05:11,1399669511,59.99133,-4.51963,9,2,2014-05-09 21:05:01,1399669501,10.222,26,11,0,0,60.0249,-4.5178,3,5
153,2014-05-09 22:05:20,1399673120,60.02233,-4.52528,2,2,2014-05-09 22:05:11,1399673111,10.179,26,11,0,0,60.0292,-4.5183,3,5
154,2014-05-09 23:05:09,1399676709,59.99133,-4.51963,3,2,2014-05-09 23:05:44,1399676744,10.179,26,11,0,0,60.0336,-4.5189,3,5
155,2014-05-10 00:05:11,1399680311,60.02477,-4.45374,2,2,2014-05-10 00:05:04,1399680304,10.179,26,11,0,0,60.0378,-4.518,3,5
156,2014-05-10 01:05:10,1399683910,60.54331,2.33731,391,2,2014-05-10 01:05:12,1399683912,10.179,24,11,0,0,60.0418,-4.5125,3,5
157,2014-05-10 02:05:10,1399687510,60.04027,-4.52528,2,3,2014-05-10 02:05:59,1399687559,10.136,24,11,0,0,60.0455,-4.5031,3,5
158,2014-05-10 03:05:19,1399691119,60.0427,-4.45374,2,2,2014-05-10 03:05:09,1399691109,10.136,24,11,0,0,60.0487,-4.4884,3,4
159,2014-05-10 04:05:08,1399694708,60.0451,-4.38219,2,2,2014-05-10 04:05:10,1399694710,10.136,24,11,0,0,60.0509,-4.4702,3,5
160,2014-05-10 05:05:09,1399698309,60.04027,-4.52528,2,1,2014-05-10 05:05:08,1399698308,10.093,24,11,0,0,60.0519,-4.4501,3,5
161,2014-05-10 06:05:10,1399701910,60.02477,-4.45374,9,2,2014-05-10 06:05:45,1399701945,10.093,24,11,0,0,60.0524,-4.4329,3,5
162,2014-05-10 07:05:20,1399705520,60.07612,-4.38768,4,2,2014-05-10 07:05:04,1399705504,10.136,24,11,0,0,60.0525,-4.4193,3,5
163,2014-05-10 08:05:24,1399709124,60.0378,-4.59681,80,2,2014-05-10 08:05:04,1399709104,10.093,24,11,0,0,60.052,-4.411,16,4
164,2014-05-10 09:05:10,1399712710,60.0451,-4.38219,2,2,2014-05-10 09:05:40,1399712740,10.093,23,11,0,0,60.0512,-4.409,3,5
165,2014-05-10 10:05:47,1399716347,60.0543,-4.09585,72,1,2014-05-10 10:05:12,1399716312,10.093,23,11,0,0,60.0512,-4.4131,41,1
166,2014-05-10 11:05:12,1399719912,60.0427,-4.45374,2,1,2014-05-10 11:05:11,1399719911,10.136,23,11,0,0,60.0511,-4.4207,3,5
167,2014-05-10 12:05:10,1399723510,60.0451,-4.38219,2,1,2014-05-10 12:05:45,1399723545,10.136,23,11,0,0,60.0516,-4.43,3,5
168,2014-05-10 13:05:11,1399727111,60.07372,-4.45932,6,3,2014-05-10 13:05:58,1399727158,10.179,29,11,0,0,60.0522,-4.4371,3,5
169,2014-05-10 14:05:17,1399730717,60.04027,-4.52528,5,1,2014-05-10 14:05:03,1399730703,10.179,29,11,0,0,60.0535,-4.4406,3,5
170,2014-05-10 15:05:25,1399734325,60.0427,-4.45374,2,2,2014-05-10 15:05:10,1399734310,10.179,29,11,0,0,60.0547,-4.4373,17,5
171,2014-05-10 16:05:26,1399737926,60.0427,-4.45374,3,2,2014-05-10 16:05:13,1399737913,10.179,29,11,0,0,60.0561,-4.4303,18,5
172,2014-05-10 17:05:09,1399741509,60.0451,-4.38219,5,1,2014-05-10 17:05:07,1399741507,10.179,26,11,0,0,60.0575,-4.4196,3,5
173,2014-05-10 18:05:10,1399745110,60.0451,-4.38219,8,2,2014-05-10 18:05:06,1399745106,10.179,26,11,0,0,60.0599,-4.4082,3,3
174,2014-05-10 19:05:11,1399748711,60.07848,-4.31603,2,3,2014-05-10 19:05:03,1399748703,10.136,26,11,0,0,60.0625,-4.3984,3,5
175,2014-05-10 20:05:10,1399752310,60.07612,-4.38768,5,2,2014-05-10 20:05:02,1399752302,10.136,26,11,0,0,60.0649,-4.3905,3,5
176,2014-05-10 21:05:10,1399755910,60.04746,-4.31063,2,2,2014-05-10 21:05:26,1399755926,10.093,29,11,0,0,60.0674,-4.388,3,5
177,2014-05-10 22:05:19,1399759519,60.07848,-4.31603,1,2,2014-05-10 22:05:12,1399759512,10.093,29,11,0,0,60.0697,-4.3904,3,5
178,2014-05-10 23:05:56,1399763156,60.0451,-4.38219,4,3,2014-05-10 23:05:12,1399763112,10.093,29,11,0,0,60.0715,-4.3974,49,3
179,2014-05-11 00:05:35,1399766735,60.0427,-4.45374,7,2,2014-05-11 00:05:05,1399766705,10.093,29,11,0,0,60.073,-4.4059,19,5
180,2014-05-11 01:05:27,1399770327,60.0451,-4.38219,13,2,2014-05-11 01:05:40,1399770340,10.05,26,11,0,0,60.0741,-4.4127,18,3
181,2014-05-11 02:05:08,1399773908,60.07612,-4.38768,2,2,2014-05-11 02:05:10,1399773910,10.05,26,11,0,0,60.0748,-4.416,3,4
182,2014-05-11 03:05:10,1399777510,60.07372,-4.45932,4,2,2014-05-11 03:05:40,1399777540,10.05,26,11,0,0,60.0754,-4.4147,3,4
183,2014-05-11 04:05:11,1399781111,60.0451,-4.38219,4,2,2014-05-11 04:05:10,1399781110,10.05,26,11,0,0,60.0761,-4.4082,3,5
184,2014-05-11 05:05:17,1399784717,60.12505,-4.39319,4,2,2014-05-11 05:05:48,1399784748,10.007,27,11,0,0,60.076,-4.3973,3,2
185,2014-05-11 06:06:13,1399788373,60.12264,-4.46492,18,2,2014-05-11 06:05:43,1399788343,10.007,27,11,0,0,60.0752,-4.3852,64,5
186,2014-05-11 07:05:22,1399791922,60.07848,-4.31603,2,1,2014-05-11 07:05:11,1399791911,10.007,27,11,0,0,60.0739,-4.3743,3,3
187,2014-05-11 08:05:11,1399795511,60.19075,-6.57919,139,2,2014-05-11 08:05:11,1399795511,10.05,27,11,0,0,60.0724,-4.368,3,5
188,2014-05-11 09:05:26,1399799126,60.07848,-4.31603,6,2,2014-05-11 09:05:10,1399799110,10.05,26,11,0,0,60.0713,-4.3687,21,3
189,2014-05-11 10:05:11,1399802711,60.16685,-6.42774,139,1,2014-05-11 10:05:09,1399802709,10.05,26,11,0,0,60.0704,-4.3747,3,5
190,2014-05-11 11:06:11,1399806371,60.07372,-4.45932,3,3,2014-05-11 11:05:38,1399806338,10.05,26,11,0,0,60.0707,-4.3897,64,4
191,2014-05-11 12:05:11,1399809911,59.99454,-3.37067,89,2,2014-05-11 12:05:30,1399809930,10.05,26,11,0,0,60.0711,-4.4061,3,2
192,2014-05-11 13:05:22,1399813522,60.07612,-4.38768,3,2,2014-05-11 13:05:01,1399813501,10.05,30,11,0,0,60.0717,-4.4225,3,5
193,2014-05-11 14:05:10,1399817110,60.0427,-4.45374,3,3,2014-05-11 14:05:13,1399817113,10.05,30,11,0,0,60.0726,-4.4347,3,5
194,2014-05-11 15:06:05,1399820765,60.0427,-4.45374,8,2,2014-05-11 15:05:34,1399820734,10.093,30,11,0,0,60.0737,-4.4416,60,5
195,2014-05-11 16:06:28,1399824388,60.07612,-4.38768,2,1,2014-05-11 16:05:41,1399824341,10.093,30,11,0,0,60.0754,-4.4416,76,5
196,2014-05-11 17:05:08,1399827908,60.07612,-4.38768,1,2,2014-05-11 17:05:44,1399827944,10.093,30,11,0,0,60.0771,-4.4352,3,5
197,2014-05-11 18:05:10,1399831510,59.93815,0.57294,287,2,2014-05-11 18:05:11,1399831511,10.093,30,11,0,0,60.079,-4.4251,3,5
198,2014-05-11 19:05:17,1399835117,60.12264,-4.46492,8,2,2014-05-11 19:05:13,1399835113,10.093,30,11,0,0,60.0809,-4.4137,3,5
199,2014-05-11 20:05:26,1399838726,60.07612,-4.38768,2,2,2014-05-11 20:05:44,1399838744,10.093,30,11,0,0,60.0825,-4.404,18,5
200,2014-05-11 21:05:10,1399842310,60.16497,-2.95597,106,2,2014-05-11 21:05:04,1399842304,10.093,32,11,0,0,60.0838,-4.4005,3,5
201,2014-05-11 22:05:11,1399845911,60.0451,-4.38219,5,1,2014-05-11 22:05:34,1399845934,10.093,32,11,0,0,60.0852,-4.4024,3,5
202,2014-05-11 23:05:33,1399849533,60.0451,-4.38219,21,3,2014-05-11 23:05:13,1399849513,10.093,32,11,0,0,60.0857,-4.4097,16,2
203,2014-05-12 00:05:11,1399853111,60.0427,-4.45374,3,2,2014-05-12 00:05:10,1399853110,10.05,32,11,0,0,60.0861,-4.4197,3,5
204,2014-05-12 01:05:52,1399856752,60.07372,-4.45932,3,2,2014-05-12 01:05:40,1399856740,10.05,28,11,0,0,60.0859,-4.4291,37,4
205,2014-05-12 02:05:08,1399860308,60.0451,-4.38219,3,2,2014-05-12 02:05:15,1399860315,10.05,28,11,0,0,60.085,-4.4356,3,5
206,2014-05-12 03:05:12,1399863912,60.07128,-4.53095,3,2,2014-05-12 03:05:15,1399863915,10.007,28,11,0,0,60.0823,-4.4376,3,5
207,2014-05-12 04:05:38,1399867538,60.12264,-4.46492,12,6,2014-05-12 04:05:24,1399867524,10.007,28,11,0,0,60.0818,-4.4321,20,5
208,2014-05-12 05:05:08,1399871108,60.07612,-4.38768,2,2,2014-05-12 05:05:45,1399871145,10.007,25,11,0,0,60.0801,-4.4218,3,5
209,2014-05-12 06:05:11,1399874711,60.07848,-4.31603,2,2,2014-05-12 06:05:44,1399874744,10.007,25,11,0,0,60.0784,-4.4077,3,3
210,2014-05-12 07:05:11,1399878311,60.07372,-4.45932,2,2,2014-05-12 07:05:12,1399878312,10.007,25,11,0,0,60.076,-4.393,3,5
210,2014-05-12 07:06:23,1399878383,60.0451,-4.38219,3,2,2014-05-12 07:05:12,1399878312,10.007,25,11,0,0,60.076,-4.393,77,5
211,2014-05-12 08:05:42,1399881942,60.07612,-4.38768,8,2,2014-05-12 08:05:35,1399881935,10.007,25,11,0,0,60.0736,-4.3809,37,5
212,2014-05-12 09:05:14,1399885514,60.07612,-4.38768,4,3,2014-05-12 09:05:11,1399885511,10.05,28,11,0,0,60.0717,-4.3761,3,5
213,2014-05-12 10:05:11,1399889111,60.10989,-5.61758,101,2,2014-05-12 10:05:12,1399889112,10.093,28,11,0,0,60.0691,-4.3797,3,5
214,2014-05-12 11:05:12,1399892712,60.07612,-4.38768,3,2,2014-05-12 11:05:34,1399892734,10.179,28,11,0,0,60.0675,-4.3925,3,5
215,2014-05-12 12:05:22,1399896322,60.12176,-5.3312,82,1,2014-05-12 12:05:37,1399896337,10.222,28,11,0,0,60.0649,-4.4074,3,5
216,2014-05-12 13:05:11,1399899911,60.07372,-4.45932,2,2,2014-05-12 13:05:14,1399899914,10.308,29,11,0,0,60.0634,-4.4254,3,5
217,2014-05-12 14:05:12,1399903512,60.07128,-4.53095,3,1,2014-05-12 14:05:43,1399903543,10.394,29,11,0,0,60.0618,-4.4421,3,2
218,2014-05-12 15:05:13,1399907113,60.0451,-4.38219,1,1,2014-05-12 15:05:01,1399907101,10.394,29,11,0,0,60.0602,-4.4536,3,5
219,2014-05-12 16:05:10,1399910710,59.97097,-2.15027,146,2,2014-05-12 16:05:14,1399910714,10.394,29,11,0,0,60.0593,-4.4572,3,5